Home   Weather   Tromsø   Past weeks
Flag for Norway

Past Weather in Tromsø, Norway — May 2018

Now
35 °F

Overcast.


Feels Like: 32 °F
Forecast: 33 / 26 °F
Wind: 3 mph from Southwest

Location: Tromso / Langnes

Current Time: Oct 18, 2019 at 1:21:51 pm

Latest Report: Oct 18, 2019 at 12:00 pm


Visibility: 22 mi

Pressure: 29.73 "Hg

Humidity: 91%

Dew Point: 32 °F

Location of TromsøLocation

May 2018 Weather in Tromsø — Graph

°F

High & Low Weather Summary for May 2018

 TemperatureHumidityPressure
High68 °F (May 10, 3:00 pm)97% (May 12, 6:00 am)30.49 "Hg (May 12, 6:00 am)
Low32 °F (May 1, 4:00 am)33% (May 10, 2:00 pm)29.58 "Hg (May 6, 7:00 am)
Average46 °F69%30.10 "Hg
* Reported May 1 2:00 am — May 31 11:00 pm, Tromsø. Weather by CustomWeather, © 2019

Note: Actual official high and low records may vary slightly from our data, if they occured in-between our weather recording intervals... More about our weather records

Advertising

Tromsø Weather History for May 1, 2018

Scroll right to see more
 ConditionsComfort  
Time TempWeatherWind HumidityBarometerVisibility
2:00 am
Tue, May 1
33 °FPassing clouds.1 mph89%30.14 "Hg25 mi
3:00 am33 °FOvercast.1 mph86%30.14 "Hg31 mi
4:00 am32 °FSunny.2 mph82%30.14 "Hg31 mi
5:00 am32 °FSunny.2 mph86%30.13 "Hg28 mi
6:00 am33 °FSunny.2 mph84%30.13 "Hg28 mi
7:00 am34 °FSunny.3 mph80%30.12 "Hg25 mi
8:00 am36 °FSunny.2 mph76%30.12 "Hg28 mi
9:00 am36 °FSunny.2 mph76%30.12 "Hg28 mi
10:00 am38 °FSunny.2 mph72%30.11 "Hg25 mi
11:00 am39 °FSunny.3 mph67%30.10 "Hg25 mi
1:00 pm41 °FSunny.6 mph62%30.07 "Hg22 mi
2:00 pm42 °FSunny.7 mph64%30.06 "Hg25 mi
3:00 pm44 °FSunny.5 mph44%30.05 "Hg22 mi
7:00 pm43 °FSunny.5 mph52%30.00 "Hg31 mi
8:00 pm42 °FSunny.3 mph58%29.99 "Hg31 mi
9:00 pm40 °FSunny.1 mph59%29.98 "Hg31 mi
10:00 pm38 °FSunny.2 mph61%29.98 "Hg19 mi
Weather by CustomWeather, © 2019

See weather overview